| time (UTC) | temp C | wind direction | speed KPH | gust KPH | rain 1hr cm | rain 24hr cm | rain mn cm | humidity % | barometer mb |
| 20260504110533 | 18 | 352 | 14.5 | 30.6 | 0.00 | 0.18 | 0.00 | 39 | 1019.0 |
| 20260504100532 | 17 | 352 | 12.9 | 20.9 | 0.00 | 0.18 | 0.00 | 42 | 1019.5 |
| 20260504081600 | 15 | 351 | 1.6 | 24.1 | 0.00 | 0.18 | 0.00 | 45 | 1019.7 |
| 20260504081033 | 15 | 351 | 6.4 | 24.1 | 0.00 | 0.18 | 0.00 | 46 | 1019.6 |
| 20260504080534 | 15 | 352 | 11.3 | 24.1 | 0.00 | 0.18 | 0.00 | 46 | 1019.6 |
| 20260504050534 | 10 | 0 | 0.0 | 3.2 | 0.00 | 0.18 | 0.00 | 69 | 1018.8 |
| 20260504045534 | 10 | 350 | 0.0 | 3.2 | 0.00 | 0.18 | 0.00 | 70 | 1018.7 |
| 20260504045033 | 9 | 0 | 0.0 | 3.2 | 0.00 | 0.18 | 0.00 | 70 | 1018.6 |
| 20260504044550 | 9 | 0 | 1.6 | 3.2 | 0.00 | 0.18 | 0.00 | 70 | 1018.6 |
| 20260504044033 | 9 | 346 | 0.0 | 4.8 | 0.00 | 0.18 | 0.00 | 71 | 1018.5 |
| 20260504043534 | 8 | 0 | 1.6 | 4.8 | 0.00 | 0.18 | 0.00 | 71 | 1018.5 |
| 20260504043108 | 8 | 0 | 1.6 | 6.4 | 0.00 | 0.18 | 0.00 | 73 | 1018.4 |
| 20260504042534 | 8 | 345 | 1.6 | 6.4 | 0.00 | 0.18 | 0.00 | 73 | 1018.5 |
| 20260504042035 | 8 | 345 | 3.2 | 6.4 | 0.00 | 0.18 | 0.00 | 73 | 1018.4 |
| 20260504041554 | 7 | 345 | 0.0 | 6.4 | 0.00 | 0.18 | 0.00 | 73 | 1018.4 |
| 20260504041034 | 7 | 344 | 4.8 | 6.4 | 0.00 | 0.18 | 0.00 | 73 | 1018.5 |
| 20260504040534 | 7 | 345 | 1.6 | 4.8 | 0.00 | 0.18 | 0.00 | 72 | 1018.4 |
| 20260504040054 | 7 | 0 | 0.0 | 6.4 | 0.00 | 0.18 | 0.00 | 72 | 1018.5 |
| 20260504035534 | 7 | 345 | 3.2 | 6.4 | 0.00 | 0.18 | 0.00 | 72 | 1018.4 |
| 20260504035034 | 7 | 345 | 1.6 | 6.4 | 0.00 | 0.18 | 0.00 | 72 | 1018.4 |
| 20260504034552 | 7 | 344 | 0.0 | 6.4 | 0.00 | 0.18 | 0.00 | 71 | 1018.3 |
| 20260504034034 | 7 | 344 | 3.2 | 6.4 | 0.00 | 0.18 | 0.00 | 71 | 1018.3 |
| 20260504033534 | 7 | 345 | 1.6 | 4.8 | 0.00 | 0.18 | 0.00 | 70 | 1018.3 |
| 20260504033052 | 7 | 0 | 0.0 | 1.6 | 0.00 | 0.18 | 0.00 | 70 | 1018.4 |
| 20260504032534 | 7 | 0 | 0.0 | 4.8 | 0.00 | 0.18 | 0.00 | 69 | 1018.4 |
| 20260504032034 | 7 | 0 | 0.0 | 4.8 | 0.00 | 0.18 | 0.00 | 69 | 1018.4 |
| 20260504031552 | 7 | 312 | 0.0 | 3.2 | 0.00 | 0.18 | 0.00 | 69 | 1018.3 |
| 20260504031033 | 7 | 0 | 0.0 | 3.2 | 0.00 | 0.18 | 0.00 | 69 | 1018.2 |
| 20260504030533 | 7 | 0 | 0.0 | 4.8 | 0.00 | 0.18 | 0.00 | 69 | 1018.2 |
| 20260504025533 | 8 | 0 | 0.0 | 3.2 | 0.00 | 0.18 | 0.00 | 68 | 1018.3 |
| 20260504025039 | 8 | 313 | 0.0 | 3.2 | 0.00 | 0.18 | 0.00 | 67 | 1018.3 |
| 20260504024553 | 8 | 0 | 0.0 | 3.2 | 0.00 | 0.18 | 0.00 | 66 | 1018.3 |
| 20260504024034 | 8 | 0 | 1.6 | 3.2 | 0.00 | 0.18 | 0.00 | 66 | 1018.3 |
| 20260504023534 | 8 | 312 | 0.0 | 4.8 | 0.00 | 0.18 | 0.00 | 65 | 1018.3 |
| 20260504023049 | 8 | 0 | 0.0 | 4.8 | 0.00 | 0.18 | 0.00 | 64 | 1018.2 |
| 20260504022536 | 8 | 312 | 0.0 | 3.2 | 0.00 | 0.18 | 0.00 | 64 | 1018.2 |
| 20260504022035 | 9 | 0 | 0.0 | 6.4 | 0.00 | 0.18 | 0.00 | 63 | 1018.3 |
| 20260504021549 | 9 | 313 | 0.0 | 9.7 | 0.00 | 0.18 | 0.00 | 63 | 1018.3 |
| 20260504021033 | 9 | 299 | 4.8 | 14.5 | 0.00 | 0.18 | 0.00 | 63 | 1018.2 |
| 20260504020535 | 9 | 327 | 4.8 | 14.5 | 0.00 | 0.18 | 0.00 | 64 | 1018.3 |
| 20260504020052 | 8 | 289 | 4.8 | 12.9 | 0.00 | 0.18 | 0.00 | 65 | 1018.3 |
| 20260504015534 | 8 | 287 | 3.2 | 11.3 | 0.00 | 0.18 | 0.00 | 66 | 1018.3 |
| 20260504015034 | 8 | 340 | 4.8 | 11.3 | 0.00 | 0.18 | 0.00 | 66 | 1018.3 |
| 20260504014546 | 8 | 324 | 1.6 | 4.8 | 0.00 | 0.18 | 0.00 | 66 | 1018.4 |
| 20260504014033 | 8 | 344 | 0.0 | 1.6 | 0.00 | 0.18 | 0.00 | 66 | 1018.3 |
| 20260504013535 | 8 | 0 | 0.0 | 1.6 | 0.00 | 0.18 | 0.00 | 65 | 1018.4 |
| 20260504013051 | 8 | 0 | 0.0 | 0.0 | 0.00 | 0.18 | 0.00 | 64 | 1018.3 |
| 20260504012533 | 8 | 0 | 0.0 | 0.0 | 0.00 | 0.18 | 0.00 | 63 | 1018.3 |
| 20260504012033 | 8 | 0 | 0.0 | 1.6 | 0.00 | 0.18 | 0.00 | 62 | 1018.2 |
| 20260504011552 | 9 | 0 | 0.0 | 1.6 | 0.00 | 0.18 | 0.00 | 62 | 1018.2 |
| 20260504011037 | 9 | 0 | 0.0 | 1.6 | 0.00 | 0.18 | 0.00 | 61 | 1018.2 |
| 20260504010533 | 9 | 0 | 0.0 | 4.8 | 0.00 | 0.18 | 0.00 | 61 | 1018.3 |
| 20260504010056 | 10 | 0 | 0.0 | 6.4 | 0.00 | 0.18 | 0.00 | 60 | 1018.3 |
| 20260504005534 | 10 | 327 | 0.0 | 6.4 | 0.00 | 0.18 | 0.00 | 60 | 1018.4 |
| 20260504005034 | 10 | 345 | 3.2 | 6.4 | 0.00 | 0.18 | 0.00 | 60 | 1018.4 |
| 20260504004549 | 10 | 13 | 1.6 | 6.4 | 0.00 | 0.18 | 0.00 | 59 | 1018.4 |
| 20260504004034 | 10 | 13 | 1.6 | 6.4 | 0.00 | 0.18 | 0.00 | 58 | 1018.4 |
| 20260504003534 | 10 | 0 | 1.6 | 6.4 | 0.00 | 0.18 | 0.00 | 58 | 1018.3 |
| 20260504003051 | 10 | 352 | 0.0 | 6.4 | 0.00 | 0.18 | 0.00 | 57 | 1018.3 |
| 20260504002534 | 10 | 352 | 1.6 | 6.4 | 0.00 | 0.18 | 0.00 | 57 | 1018.3 |
| 20260504002034 | 10 | 355 | 0.0 | 6.4 | 0.00 | 0.18 | 0.00 | 56 | 1018.3 |
| 20260504001555 | 10 | 355 | 1.6 | 14.5 | 0.00 | 0.18 | 0.00 | 56 | 1018.3 |
| 20260504001033 | 10 | 352 | 6.4 | 14.5 | 0.00 | 0.18 | 0.00 | 57 | 1018.2 |
| 20260504000534 | 10 | 352 | 3.2 | 12.9 | 0.00 | 0.18 | 0.00 | 59 | 1018.3 |
| 20260504000059 | 10 | 352 | 1.6 | 8.0 | 0.00 | 0.18 | 0.00 | 60 | 1018.3 |
| 20260503235534 | 10 | 0 | 0.0 | 3.2 | 0.00 | 0.18 | 0.00 | 60 | 1018.3 |
| 20260503235034 | 10 | 0 | 0.0 | 4.8 | 0.00 | 0.18 | 0.00 | 59 | 1018.3 |
| 20260503234544 | 10 | 351 | 0.0 | 4.8 | 0.00 | 0.18 | 0.00 | 59 | 1018.3 |
| 20260503234036 | 10 | 351 | 0.0 | 6.4 | 0.00 | 0.18 | 0.00 | 59 | 1018.3 |
| 20260503233533 | 10 | 0 | 0.0 | 6.4 | 0.00 | 0.18 | 0.00 | 59 | 1018.3 |
| 20260503233051 | 10 | 0 | 0.0 | 6.4 | 0.00 | 0.18 | 0.00 | 58 | 1018.3 |
| 20260503232537 | 10 | 0 | 1.6 | 6.4 | 0.00 | 0.18 | 0.00 | 58 | 1018.3 |
| 20260503232033 | 10 | 352 | 1.6 | 14.5 | 0.00 | 0.18 | 0.00 | 58 | 1018.3 |
| 20260503231548 | 10 | 0 | 0.0 | 14.5 | 0.00 | 0.18 | 0.00 | 58 | 1018.4 |
| 20260503231055 | 10 | 352 | 4.8 | 14.5 | 0.00 | 0.18 | 0.00 | 58 | 1018.4 |
| 20260503230536 | 10 | 352 | 0.0 | 4.8 | 0.00 | 0.18 | 0.00 | 58 | 1018.4 |
| 20260503230108 | 10 | 0 | 0.0 | 6.4 | 0.00 | 0.18 | 0.00 | 57 | 1018.4 |
| 20260503225533 | 10 | 0 | 0.0 | 6.4 | 0.00 | 0.18 | 0.00 | 57 | 1018.4 |
| 20260503225033 | 11 | 0 | 1.6 | 12.9 | 0.00 | 0.18 | 0.00 | 56 | 1018.4 |
| 20260503224548 | 11 | 352 | 0.0 | 12.9 | 0.00 | 0.18 | 0.00 | 55 | 1018.4 |
| 20260503224034 | 11 | 0 | 3.2 | 19.3 | 0.00 | 0.18 | 0.00 | 55 | 1018.3 |
| 20260503223533 | 11 | 352 | 0.0 | 19.3 | 0.00 | 0.18 | 0.00 | 54 | 1018.4 |
| 20260503223101 | 11 | 352 | 1.6 | 12.9 | 0.00 | 0.18 | 0.00 | 54 | 1018.3 |
| 20260503222533 | 11 | 0 | 3.2 | 22.5 | 0.00 | 0.18 | 0.00 | 54 | 1018.3 |
| 20260503222034 | 11 | 351 | 3.2 | 22.5 | 0.00 | 0.18 | 0.00 | 54 | 1018.2 |
| 20260503221549 | 11 | 351 | 8.0 | 22.5 | 0.00 | 0.18 | 0.00 | 54 | 1018.3 |
| 20260503221035 | 11 | 352 | 6.4 | 17.7 | 0.00 | 0.18 | 0.00 | 54 | 1018.2 |
| 20260503220534 | 11 | 352 | 6.4 | 17.7 | 0.00 | 0.18 | 0.00 | 55 | 1018.3 |
| 20260503220053 | 11 | 352 | 6.4 | 17.7 | 0.00 | 0.18 | 0.00 | 54 | 1018.3 |
| 20260503215533 | 11 | 352 | 3.2 | 16.1 | 0.00 | 0.18 | 0.00 | 54 | 1018.3 |
| 20260503215033 | 11 | 352 | 4.8 | 16.1 | 0.00 | 0.18 | 0.00 | 54 | 1018.4 |
| 20260503214555 | 11 | 352 | 4.8 | 16.1 | 0.00 | 0.18 | 0.00 | 54 | 1018.4 |
| 20260503214033 | 11 | 352 | 4.8 | 19.3 | 0.00 | 0.18 | 0.00 | 54 | 1018.4 |
| 20260503213533 | 11 | 352 | 8.0 | 19.3 | 0.00 | 0.18 | 0.00 | 54 | 1018.4 |
| 20260503213049 | 11 | 352 | 8.0 | 17.7 | 0.00 | 0.18 | 0.00 | 54 | 1018.4 |
| 20260503212534 | 11 | 352 | 6.4 | 22.5 | 0.00 | 0.18 | 0.00 | 54 | 1018.4 |
| 20260503212032 | 11 | 352 | 9.7 | 22.5 | 0.00 | 0.18 | 0.00 | 54 | 1018.3 |
| 20260503211547 | 11 | 352 | 9.7 | 22.5 | 0.00 | 0.18 | 0.00 | 55 | 1018.3 |
| 20260503211034 | 11 | 352 | 4.8 | 24.1 | 0.00 | 0.18 | 0.00 | 55 | 1018.3 |
| 20260503210534 | 11 | 352 | 6.4 | 24.1 | 0.00 | 0.18 | 0.00 | 55 | 1018.3 |
| 20260503210047 | 11 | 352 | 12.9 | 24.1 | 0.00 | 0.18 | 0.00 | 55 | 1018.4 |
| 20260503205533 | 11 | 352 | 11.3 | 24.1 | 0.00 | 0.18 | 0.18 | 55 | 1018.4 |
| 20260503205033 | 11 | 352 | 8.0 | 17.7 | 0.00 | 0.18 | 0.18 | 55 | 1018.3 |
| 20260503204546 | 11 | 352 | 8.0 | 17.7 | 0.00 | 0.18 | 0.18 | 55 | 1018.3 |
| 20260503204034 | 11 | 352 | 6.4 | 17.7 | 0.00 | 0.18 | 0.18 | 55 | 1018.3 |
| 20260503203534 | 11 | 352 | 8.0 | 19.3 | 0.00 | 0.18 | 0.18 | 55 | 1018.4 |
| 20260503203051 | 11 | 351 | 6.4 | 22.5 | 0.00 | 0.18 | 0.18 | 55 | 1018.4 |
| 20260503202534 | 11 | 352 | 9.7 | 22.5 | 0.00 | 0.18 | 0.18 | 55 | 1018.6 |
| 20260503202036 | 11 | 352 | 8.0 | 22.5 | 0.00 | 0.18 | 0.18 | 55 | 1018.5 |
| 20260503201551 | 11 | 351 | 11.3 | 22.5 | 0.00 | 0.18 | 0.18 | 55 | 1018.5 |
| 20260503201033 | 11 | 352 | 8.0 | 22.5 | 0.00 | 0.18 | 0.18 | 54 | 1018.6 |
| 20260503200534 | 11 | 351 | 8.0 | 22.5 | 0.00 | 0.18 | 0.18 | 54 | 1018.5 |
| 20260503200052 | 11 | 352 | 9.7 | 22.5 | 0.00 | 0.18 | 0.18 | 54 | 1018.4 |
| 20260503195536 | 12 | 352 | 9.7 | 19.3 | 0.00 | 0.18 | 0.18 | 53 | 1018.4 |
| 20260503195035 | 12 | 352 | 9.7 | 19.3 | 0.00 | 0.18 | 0.18 | 53 | 1018.4 |
| 20260503194558 | 12 | 337 | 9.7 | 22.5 | 0.00 | 0.18 | 0.18 | 53 | 1018.5 |
| 20260503194035 | 12 | 352 | 11.3 | 22.5 | 0.00 | 0.18 | 0.18 | 53 | 1018.4 |
| 20260503193533 | 12 | 352 | 9.7 | 24.1 | 0.00 | 0.18 | 0.18 | 53 | 1018.4 |
| 20260503193050 | 12 | 352 | 6.4 | 29.0 | 0.00 | 0.18 | 0.18 | 53 | 1018.4 |
| 20260503192533 | 12 | 352 | 11.3 | 29.0 | 0.00 | 0.18 | 0.18 | 53 | 1018.4 |
| 20260503192034 | 12 | 352 | 8.0 | 24.1 | 0.00 | 0.18 | 0.18 | 53 | 1018.4 |
| 20260503191546 | 12 | 352 | 4.8 | 24.1 | 0.00 | 0.18 | 0.18 | 53 | 1018.4 |
| 20260503191035 | 12 | 352 | 6.4 | 22.5 | 0.00 | 0.18 | 0.18 | 53 | 1018.4 |
| 20260503190538 | 12 | 352 | 11.3 | 24.1 | 0.00 | 0.18 | 0.18 | 53 | 1018.3 |
| 20260503190051 | 12 | 352 | 8.0 | 24.1 | 0.00 | 0.18 | 0.18 | 53 | 1018.3 |
| 20260503185534 | 12 | 352 | 8.0 | 20.9 | 0.00 | 0.18 | 0.18 | 53 | 1018.3 |
| 20260503185035 | 12 | 352 | 4.8 | 22.5 | 0.00 | 0.18 | 0.18 | 53 | 1018.3 |
| 20260503184550 | 12 | 352 | 8.0 | 22.5 | 0.00 | 0.18 | 0.18 | 53 | 1018.1 |
| 20260503184035 | 12 | 352 | 9.7 | 22.5 | 0.00 | 0.18 | 0.18 | 53 | 1018.2 |
| 20260503183535 | 12 | 352 | 8.0 | 19.3 | 0.00 | 0.18 | 0.18 | 53 | 1018.1 |
| 20260503183055 | 12 | 352 | 11.3 | 25.7 | 0.00 | 0.18 | 0.18 | 53 | 1018.0 |
| 20260503182534 | 12 | 352 | 6.4 | 25.7 | 0.00 | 0.18 | 0.18 | 52 | 1017.9 |
| 20260503182035 | 12 | 352 | 8.0 | 17.7 | 0.00 | 0.18 | 0.18 | 51 | 1017.9 |
| 20260503181559 | 12 | 351 | 6.4 | 20.9 | 0.00 | 0.18 | 0.18 | 51 | 1017.7 |
| 20260503181038 | 12 | 352 | 9.7 | 20.9 | 0.00 | 0.18 | 0.18 | 51 | 1017.7 |
| 20260503180536 | 12 | 352 | 8.0 | 24.1 | 0.00 | 0.18 | 0.18 | 50 | 1017.6 |
| 20260503180051 | 12 | 352 | 8.0 | 24.1 | 0.00 | 0.18 | 0.18 | 49 | 1017.7 |
| 20260503175536 | 12 | 352 | 8.0 | 20.9 | 0.00 | 0.18 | 0.18 | 49 | 1017.5 |
| 20260503175036 | 12 | 355 | 9.7 | 20.9 | 0.00 | 0.18 | 0.18 | 50 | 1017.4 |
| 20260503174558 | 12 | 352 | 6.4 | 20.9 | 0.00 | 0.18 | 0.18 | 49 | 1017.4 |
| 20260503174035 | 12 | 352 | 4.8 | 20.9 | 0.00 | 0.18 | 0.18 | 49 | 1017.4 |
| 20260503173535 | 12 | 352 | 8.0 | 22.5 | 0.00 | 0.18 | 0.18 | 49 | 1017.4 |
| 20260503173058 | 12 | 352 | 4.8 | 24.1 | 0.00 | 0.18 | 0.18 | 49 | 1017.4 |
| 20260503172536 | 12 | 352 | 11.3 | 24.1 | 0.00 | 0.18 | 0.18 | 48 | 1017.5 |
| 20260503172034 | 12 | 352 | 6.4 | 17.7 | 0.00 | 0.18 | 0.18 | 48 | 1017.4 |
| 20260503171555 | 12 | 352 | 9.7 | 17.7 | 0.00 | 0.18 | 0.18 | 48 | 1017.3 |
| 20260503171034 | 12 | 352 | 8.0 | 22.5 | 0.00 | 0.18 | 0.18 | 47 | 1017.3 |
| 20260503170535 | 13 | 352 | 9.7 | 22.5 | 0.00 | 0.18 | 0.18 | 47 | 1017.2 |
| 20260503150533 | 15 | 101 | 12.9 | 33.8 | 0.00 | 0.18 | 0.18 | 42 | 1016.1 |